Regional Weather Roundup
Issued by NWS Kansas City/Pleasant Hill, MO

Home | Current Version | Previous Version | Graphics & Text | Print | Product List | Glossary Off
Versions: 1 2 3 4 5 6 7 8 9 10 11 12 13 14 15 16 17 18 19 20 21 22 23 24 25 26 27 28 29 30 31 32 33 34 35 36 37 38 39 40 41 42 43 44 45 46 47 48 49 50

000
ASUS43 KEAX 280510
RWREAX

WEATHER ROUNDUP FOR EASTERN KANSAS AND NORTHWEST MISSOURI
NATIONAL WEATHER SERVICE KANSAS CITY/PLEASANT HILL MO
1200 AM CDT TUE APR 28 2015

KSZ040-057-103>105-MOZ028-029-037-043-280600-
...KANSAS CITY METROPOLITAN AREA...

CITY           SKY/WX    TMP DP  RH WIND       PRES   REMARKS
K.C. INTL      PTCLDY    51  36  56 NE6       30.13R
K.C. DOWNTOWN  PTCLDY    55  36  48 CALM      30.12R
LEES SUMMIT    MOCLDY    53  36  52 N5        30.12R
OLATHE - IXD   MOCLDY    46  38  73 NE6       30.12S
OLATHE - OJC   MOCLDY    54  36  50 NE3       30.11S
LAWRENCE       MOCLDY    44  39  82 N3        30.13R

$$

MOZ001>008-011>017-020>025-030>033-038>040-044>046-053-054-280600-
...NORTHERN AND CENTRAL MISSOURI...

CITY           SKY/WX    TMP DP  RH WIND       PRES   REMARKS
ST. JOSEPH     PTCLDY    48  39  71 N9        30.14R
MOSBY          PTCLDY    45  41  87 CALM      30.13R
WARRENSBURG    CLEAR     52  36  54 CALM      30.11R
WHITEMAN AFB   NOT AVBL
CLINTON        PTCLDY    52  39  62 N6        30.10S
SEDALIA        CLEAR     52  37  56 CALM      30.12R
WARSAW         NOT AVBL
MARSHALL       PTCLDY    55  39  54 CALM      30.13R
CHILLICOTHE      N/A     47  41  80 NW3       30.14S
MOBERLY        CLEAR     48  36  61 NE3       30.12S
KIRKSVILLE     CLEAR     46  39  76 N5        30.13S

$$

MOZ041-047>049-056>058-063>065-088>090-097-280600-
...EASTERN AND SOUTHERN MISSOURI...

CITY           SKY/WX    TMP DP  RH WIND       PRES   REMARKS
ST. LOUIS INTL PTCLDY    52  39  61 E7        30.10R
SPIRIT OF STL  CLEAR     44  40  85 CALM      30.09R
COLUMBIA       CLEAR     50  38  63 NE7       30.10S
JEFFERSON CITY CLEAR     56  36  47 NE7       30.09S
MEXICO         CLEAR     52  43  71 NE5       30.10F
HANNIBAL       CLEAR     50  34  53 CALM      30.11S
ROLLA          CLEAR     48  36  63 NE5       30.07R
LEBANON        PTCLDY    52  36  54 NE8       30.08R
OSAGE BEACH    PTCLDY    50  36  57 NE3       30.09S
SPRINGFIELD    CLOUDY    52  37  56 NE6       30.06R
BRANSON        MOCLDY    54  36  50 CALM      30.05R
NEVADA         CLOUDY    50  39  66 N6        30.11R
JOPLIN         CLOUDY    52  39  61 N5        30.08R
WEST PLAINS    PTCLDY    50  35  56 NE7       30.05R

$$

IAZ060-094-KSZ022-034>040-054-083-096-NEZ052-066-093-280600-
...KANSAS...SOUTHEAST NEBRASKA AND IOWA...

CITY           SKY/WX    TMP DP  RH WIND       PRES   REMARKS
TOPEKA         PTCLDY    47  40  76 CALM      30.14R
MANHATTAN      PTCLDY    43  38  82 CALM      30.14R
EMPORIA        CLOUDY    49  39  68 NW3       30.11F
CHANUTE        CLOUDY    53  40  61 N6        30.09S
WICHITA        CLOUDY    55  36  48 NE8       30.11S
OMAHA          MOCLDY    46  39  76 N6        30.17S
LINCOLN        PTCLDY    44  36  73 N6        30.19R
FALLS CITY     PTCLDY    52  35  52 N5        30.15R
LAMONI         CLEAR     51  35  54 N5        30.15R
DES MOINES     CLEAR     54  34  46 NW5       30.16R

$$



USA.gov is the U.S. government's official web portal to all federal, state and local government web resources and services.